Location: Ammerl�gen
(47.2167°N, 9.6000°E)
Time: 11:20:38
(UTC+00:00)

RS-15 - Pass Details

Date: 08 December 2021
Orbit: 1882 x 2162 km, 64.8° (Epoch: 22 January)

Event Time Altitude Azimuth Distance (km) Brightness Sun altitude
Exits shadow 23:50:44 15° 67° (ENE) 4,149 9.8 -64.5°
Drops below altitude 10° 23:53:16 10° 56° (NE) 4,584 10.2 -64.3°
Sets 23:58:01 0° 41° (NE) 5,630 10.8 -64.0°
